�������l�o���
Date,Time,MP-1(��Sv/h),MP-2(��Sv/h),MP-3(��Sv/h),MP-4(��Sv/h),MP-5(��Sv/h),MP-6(��Sv/h),MP-7(��Sv/h),����,����(m/s),���J
2014/01/03,00:00,0.8,0.5,0.8,0.8,0.7,0.3,0.3,��,1.5,��
2014/01/03,00:10,0.8,0.5,0.8,0.8,0.7,0.3,0.3,�k��,1.7,��
2014/01/03,00:20,0.8,0.5,0.8,0.8,0.7,0.3,0.3,��,1.9,��
2014/01/03,00:30,0.8,0.5,0.8,0.8,0.7,0.3,0.3,���k��,2.2,��
2014/01/03,00:40,0.8,0.5,0.8,0.7,0.7,0.3,0.3,��,2.8,��
2014/01/03,00:50,0.8,0.5,0.8,0.8,0.7,0.3,0.3,���k��,1.4,��
2014/01/03,01:00,0.8,0.6,0.8,0.7,0.7,0.3,0.3,��,2.0,��
2014/01/03,01:10,0.8,0.5,0.8,0.7,0.7,0.3,0.3,���k��,1.5,��
2014/01/03,01:20,0.8,0.5,0.8,0.8,0.7,0.3,0.3,��,1.6,��
2014/01/03,01:30,0.8,0.5,0.8,0.7,0.7,0.3,0.3,��,0.9,��
2014/01/03,01:40,0.8,0.5,0.8,0.7,0.7,0.3,0.3,���k��,1.4,��
2014/01/03,01:50,0.8,0.6,0.8,0.7,0.7,0.3,0.3,�k��,2.8,��
2014/01/03,02:00,0.8,0.5,0.8,0.8,0.7,0.3,0.3,�k��,2.0,��
2014/01/03,02:10,0.8,0.5,0.8,0.8,0.7,0.3,0.3,�k��,1.9,��
2014/01/03,02:20,0.8,0.5,0.8,0.7,0.7,0.3,0.3,�k�k��,3.0,��
2014/01/03,02:30,0.8,0.5,0.8,0.8,0.7,0.3,0.3,�k,1.7,��
2014/01/03,02:40,0.8,0.5,0.8,0.8,0.7,0.3,0.3,�k�k��,2.6,��
2014/01/03,02:50,0.8,0.5,0.8,0.7,0.7,0.3,0.3,�k�k��,2.5,��
2014/01/03,03:00,0.8,0.5,0.8,0.7,0.7,0.3,0.3,�k�k��,3.3,��
2014/01/03,03:10,0.8,0.5,0.8,0.7,0.7,0.3,0.3,�k�k��,3.1,��
2014/01/03,03:20,0.8,0.5,0.8,0.8,0.7,0.3,0.3,�k��,3.4,��
2014/01/03,03:30,0.8,0.5,0.8,0.7,0.7,0.3,0.3,�k��,3.9,��
2014/01/03,03:40,0.8,0.5,0.8,0.7,0.7,0.3,0.3,�k��,3.6,��
2014/01/03,03:50,0.8,0.5,0.8,0.8,0.7,0.3,0.3,�k��,1.7,��
2014/01/03,04:00,0.8,0.5,0.8,0.8,0.7,0.3,0.3,��,1.4,��
2014/01/03,04:10,0.8,0.5,0.8,0.8,0.7,0.3,0.3,��,2.3,��
2014/01/03,04:20,0.8,0.5,0.8,0.8,0.7,0.3,0.3,���k��,0.8,��
2014/01/03,04:30,0.8,0.5,0.8,0.7,0.7,0.3,0.3,���k��,1.4,��
2014/01/03,04:40,0.8,0.5,0.8,0.7,0.7,0.3,0.3,��,2.8,��
2014/01/03,04:50,0.8,0.5,0.8,0.8,0.7,0.3,0.3,���k��,3.7,��
2014/01/03,05:00,0.8,0.5,0.8,0.8,0.7,0.3,0.3,��,4.6,��
2014/01/03,05:10,0.8,0.5,0.8,0.8,0.7,0.3,0.3,���k��,3.1,��
2014/01/03,05:20,0.8,0.5,0.8,0.7,0.7,0.3,0.3,���k��,4.3,��
2014/01/03,05:30,0.8,0.5,0.8,0.7,0.7,0.3,0.3,�k��,4.2,��
2014/01/03,05:40,0.8,0.5,0.8,0.7,0.7,0.3,0.3,�k�k��,4.2,��
2014/01/03,05:50,0.8,0.5,0.8,0.7,0.7,0.3,0.3,�k�k��,4.1,��
2014/01/03,06:00,0.8,0.5,0.8,0.8,0.7,0.3,0.3,�k��,4.0,��
2014/01/03,06:10,0.8,0.5,0.8,0.8,0.7,0.3,0.3,�k��,4.0,��
2014/01/03,06:20,0.8,0.5,0.8,0.7,0.7,0.3,0.3,�k�k��,5.0,��
2014/01/03,06:30,0.8,0.5,0.8,0.8,0.7,0.3,0.3,�k��,6.7,��
2014/01/03,06:40,0.8,0.5,0.8,0.8,0.7,0.3,0.3,�k��,6.4,��
2014/01/03,06:50,0.8,0.5,0.8,0.7,0.7,0.3,0.3,�k��,7.3,��
2014/01/03,07:00,0.8,0.5,0.8,0.8,0.7,0.3,0.3,�k��,8.3,��
2014/01/03,07:10,0.8,0.5,0.8,0.7,0.7,0.3,0.3,���k��,8.3,��
2014/01/03,07:20,0.8,0.5,0.8,0.8,0.7,0.3,0.3,�k�k��,5.4,��
2014/01/03,07:30,0.8,0.5,0.8,0.7,0.7,0.3,0.3,�k�k��,4.5,��
2014/01/03,07:40,0.8,0.5,0.8,0.7,0.7,0.3,0.3,�k�k��,4.5,��
2014/01/03,07:50,0.8,0.5,0.8,0.8,0.7,0.3,0.3,�k,4.2,��
2014/01/03,08:00,0.8,0.5,0.8,0.8,0.7,0.3,0.3,�k�k��,3.3,��
2014/01/03,08:10,0.8,0.5,0.8,0.8,0.7,0.3,0.3,�k�k��,3.1,��
2014/01/03,08:20,0.8,0.5,0.8,0.8,0.7,0.3,0.3,�k�k��,2.2,��
2014/01/03,08:30,0.8,0.5,0.8,0.8,0.7,0.3,0.3,�k�k��,1.4,��
2014/01/03,08:40,0.8,0.5,0.8,0.8,0.7,0.3,0.3,�k��,0.5,��
2014/01/03,08:50,0.8,0.5,0.8,0.8,0.7,0.3,0.3,�k�k��,2.0,��
2014/01/03,09:00,0.8,0.5,0.8,0.8,0.7,0.3,0.3,�k,1.7,��
2014/01/03,09:10,0.8,0.6,0.8,0.8,0.7,0.3,0.3,�k�k��,1.4,��
2014/01/03,09:20,0.8,0.5,0.8,0.7,0.7,0.3,0.3,�k�k��,2.5,��
2014/01/03,09:30,0.8,0.5,0.8,0.8,0.7,0.3,0.3,�k,2.2,��
2014/01/03,09:40,0.8,0.5,0.8,0.8,0.7,0.3,0.3,�k�k��,2.1,��
2014/01/03,09:50,0.8,0.6,0.8,0.8,0.7,0.3,0.3,�k�k��,0.5,��
2014/01/03,10:00,0.8,0.5,0.8,0.8,0.7,0.3,0.3,-,CALM,��
2014/01/03,10:10,0.8,0.6,0.8,0.8,0.7,0.3,0.3,-,CALM,��
2014/01/03,10:20,0.8,0.5,0.8,0.8,0.7,0.3,0.3,���쓌,1.3,��
2014/01/03,10:30,0.8,0.5,0.8,0.8,0.7,0.3,0.3,-,CALM,��
2014/01/03,10:40,0.8,0.5,0.8,0.8,0.7,0.3,0.3,��쓌,1.4,��
2014/01/03,10:50,0.8,0.5,0.8,0.8,0.7,0.3,0.3,��쓌,1.6,��
2014/01/03,11:00,0.8,0.5,0.8,0.8,0.7,0.3,0.3,��,2.6,��
2014/01/03,11:10,0.8,0.6,0.8,0.8,0.7,0.3,0.3,��,3.3,��
2014/01/03,11:20,0.8,0.5,0.8,0.8,0.7,0.3,0.3,��,4.2,��
2014/01/03,11:30,0.8,0.6,0.8,0.8,0.7,0.3,0.3,��쓌,3.9,��
2014/01/03,11:40,0.8,0.6,0.8,0.8,0.7,0.3,0.3,��쓌,3.1,��
2014/01/03,11:50,0.8,0.6,0.8,0.8,0.7,0.3,0.3,��,3.1,��
2014/01/03,12:00,0.8,0.5,0.8,0.8,0.7,0.3,0.3,��,3.3,��
2014/01/03,12:10,0.8,0.5,0.8,0.8,0.7,0.3,0.3,��쓌,2.0,��
2014/01/03,12:20,0.8,0.6,0.8,0.8,0.7,0.3,0.3,��,2.6,��
2014/01/03,12:30,0.8,0.6,0.8,0.8,0.7,0.3,0.3,��,2.8,��
2014/01/03,12:40,0.8,0.6,0.8,0.8,0.7,0.3,0.3,��,2.6,��
2014/01/03,12:50,0.8,0.6,0.8,0.8,0.7,0.3,0.3,��,3.1,��
2014/01/03,13:00,0.8,0.6,0.8,0.8,0.7,0.3,0.3,��,2.5,��
2014/01/03,13:10,0.8,0.6,0.8,0.8,0.7,0.3,0.3,��쓌,3.1,��
2014/01/03,13:20,0.8,0.6,0.8,0.8,0.7,0.3,0.3,��,2.8,��
2014/01/03,13:30,0.8,0.6,0.8,0.8,0.7,0.3,0.3,��,3.1,��
2014/01/03,13:40,0.8,0.6,0.8,0.8,0.7,0.3,0.3,��,4.5,��
2014/01/03,13:50,0.8,0.6,0.8,0.8,0.7,0.3,0.3,��,4.4,��
2014/01/03,14:00,0.8,0.6,0.8,0.8,0.7,0.3,0.3,��,4.2,��
2014/01/03,14:10,0.8,0.6,0.8,0.8,0.7,0.3,0.3,��,4.4,��
2014/01/03,14:20,0.8,0.6,0.8,0.8,0.7,0.3,0.3,��,6.1,��
2014/01/03,14:30,0.8,0.6,0.8,0.8,0.7,0.3,0.3,��,6.3,��
2014/01/03,14:40,0.8,0.6,0.8,0.8,0.7,0.3,0.3,��,6.3,��
2014/01/03,14:50,0.8,0.6,0.8,0.8,0.7,0.3,0.3,��,5.2,��
2014/01/03,15:00,0.8,0.5,0.8,0.8,0.7,0.3,0.3,��,5.0,��
2014/01/03,15:10,0.8,0.6,0.8,0.8,0.7,0.3,0.3,��,4.2,��
2014/01/03,15:20,0.8,0.6,0.8,0.8,0.7,0.3,0.3,��,6.2,��
2014/01/03,15:30,0.8,0.6,0.8,0.8,0.7,0.3,0.3,��,5.6,��
2014/01/03,15:40,0.8,0.6,0.8,0.8,0.7,0.3,0.3,��,6.4,��
2014/01/03,15:50,0.8,0.6,0.8,0.8,0.7,0.3,0.3,��,5.9,��
2014/01/03,16:00,0.8,0.6,0.8,0.8,0.7,0.3,0.3,��쐼,6.4,��
2014/01/03,16:10,0.8,0.6,0.8,0.8,0.7,0.3,0.3,��,7.3,��
2014/01/03,16:20,0.8,0.5,0.8,0.8,0.7,0.3,0.3,��쐼,6.4,��
2014/01/03,16:30,0.8,0.5,0.8,0.8,0.7,0.3,0.3,��,5.6,��
2014/01/03,16:40,0.8,0.6,0.8,0.8,0.7,0.3,0.3,��,6.4,��
2014/01/03,16:50,0.8,0.6,0.8,0.8,0.7,0.3,0.3,��,5.4,��
2014/01/03,17:00,0.8,0.5,0.8,0.8,0.7,0.3,0.3,��,5.0,��
2014/01/03,17:10,0.8,0.5,0.8,0.8,0.7,0.3,0.3,��,6.0,��
2014/01/03,17:20,0.8,0.6,0.8,0.8,0.7,0.3,0.3,��,5.6,��
2014/01/03,17:30,0.8,0.6,0.8,0.8,0.7,0.3,0.3,��쐼,5.2,��
2014/01/03,17:40,0.8,0.6,0.8,0.8,0.7,0.3,0.3,��쐼,5.3,��
2014/01/03,17:50,0.8,0.6,0.8,0.8,0.7,0.3,0.3,��쐼,6.6,��
2014/01/03,18:00,0.8,0.5,0.8,0.8,0.7,0.3,0.3,��쐼,7.9,��
2014/01/03,18:10,0.8,0.5,0.8,0.8,0.7,0.3,0.3,��쐼,6.3,��
2014/01/03,18:20,0.8,0.5,0.8,0.8,0.7,0.3,0.3,��쐼,4.0,��
2014/01/03,18:30,0.8,0.6,0.8,0.8,0.7,0.3,0.3,��쐼,4.7,��
2014/01/03,18:40,0.8,0.5,0.8,0.8,0.7,0.3,0.3,��쐼,5.8,��
2014/01/03,18:50,0.8,0.5,0.8,0.8,0.7,0.3,0.3,��쐼,6.8,��
2014/01/03,19:00,0.8,0.6,0.8,0.8,0.7,0.3,0.3,��쐼,7.5,��
2014/01/03,19:10,0.8,0.5,0.8,0.8,0.7,0.3,0.3,��쐼,8.7,��
2014/01/03,19:20,0.8,0.5,0.8,0.8,0.7,0.3,0.3,��쐼,8.5,��
2014/01/03,19:30,0.8,0.5,0.8,0.7,0.7,0.3,0.3,��쐼,8.3,��
2014/01/03,19:40,0.8,0.5,0.8,0.8,0.7,0.3,0.3,��쐼,8.3,��
2014/01/03,19:50,0.8,0.5,0.8,0.8,0.7,0.3,0.3,��,7.0,��
2014/01/03,20:00,0.8,0.5,0.8,0.8,0.7,0.3,0.3,��쐼,7.0,��
2014/01/03,20:10,0.8,0.5,0.8,0.8,0.7,0.3,0.3,��쐼,7.1,��
2014/01/03,20:20,0.8,0.6,0.8,0.8,0.7,0.3,0.3,��쐼,7.1,��
2014/01/03,20:30,0.8,0.6,0.8,0.8,0.7,0.3,0.3,��쐼,7.1,��
2014/01/03,20:40,0.8,0.5,0.8,0.8,0.7,0.3,0.3,�쐼,7.2,��
2014/01/03,20:50,0.8,0.5,0.8,0.8,0.7,0.3,0.3,��쐼,6.1,��
2014/01/03,21:00,0.8,0.5,0.8,0.8,0.7,0.3,0.3,�쐼,4.1,��
2014/01/03,21:10,0.8,0.5,0.8,0.8,0.7,0.3,0.3,��쐼,4.0,��
2014/01/03,21:20,0.8,0.5,0.8,0.8,0.7,0.3,0.3,��쐼,3.4,��
2014/01/03,21:30,0.8,0.5,0.8,0.8,0.7,0.3,0.3,�쐼,4.8,��
2014/01/03,21:40,0.8,0.5,0.8,0.8,0.7,0.3,0.3,��쐼,4.6,��
2014/01/03,21:50,0.8,0.5,0.8,0.8,0.7,0.3,0.3,��쐼,5.0,��
2014/01/03,22:00,0.8,0.5,0.8,0.8,0.7,0.3,0.3,��쐼,5.6,��
2014/01/03,22:10,0.8,0.6,0.8,0.8,0.7,0.3,0.3,�쐼,6.2,��
2014/01/03,22:20,0.8,0.5,0.8,0.8,0.7,0.3,0.3,�쐼,5.3,��
2014/01/03,22:30,0.8,0.5,0.8,0.8,0.7,0.3,0.3,�쐼,5.2,��
2014/01/03,22:40,0.8,0.5,0.8,0.8,0.7,0.3,0.3,��쐼,5.0,��
2014/01/03,22:50,0.8,0.5,0.8,0.8,0.7,0.3,0.3,��쐼,4.5,��
2014/01/03,23:00,0.8,0.5,0.8,0.8,0.7,0.3,0.3,��쐼,4.1,��
2014/01/03,23:10,0.8,0.5,0.8,0.8,0.7,0.3,0.3,��쐼,3.9,��
2014/01/03,23:20,0.8,0.5,0.8,0.8,0.7,0.3,0.3,��쐼,3.7,��
2014/01/03,23:30,0.8,0.5,0.8,0.8,0.7,0.3,0.3,��쐼,4.6,��
2014/01/03,23:40,0.8,0.5,0.8,0.8,0.7,0.3,0.3,��쐼,3.6,��
2014/01/03,23:50,0.8,0.5,0.8,0.8,0.7,0.3,0.3,��쐼,4.6,��
